CAPE
640 549 790 845 779 728 674 646 597 536 463 403 308 176 85 90 83 65 41 60 88 124 6 0 7 19 224 366 229 94 215 297 283 230 126 1 0 0 0 0 136 96 191
718 564 711 773 773 712 644 557 472 429 367 307 204 108 140 123 82 41 85 138 152 55 46 114 136 98 77 362 356 258 131 296 235 75 0 0 0 0 0 0 0 5 103
843 548 687 631 705 685 581 533 456 445 296 173 182 220 184 123 101 139 181 163 213 203 283 408 316 222 134 385 602 335 178 165 197 54 0 0 0 0 0 0 0 0 3
855 566 458 567 578 611 552 510 424 267 186 194 263 243 184 219 268 213 190 196 213 341 349 526 617 392 291 643 544 349 106 0 0 0 0 0 0 11 8 3 1 0 0
870 686 572 530 528 568 460 374 280 246 201 234 252 237 314 366 338 291 220 182 235 265 181 277 477 507 527 425 368 160 0 0 0 0 0 0 4 13 13 13 13 16 11
944 723 599 489 515 505 441 381 280 206 193 205 209 301 432 414 401 353 255 231 285 217 63 52 103 214 236 174 89 36 0 0 0 0 0 3 3 7 12 16 49 35 19
875 719 588 476 508 535 558 431 344 277 256 275 305 370 406 452 439 420 352 299 291 243 117 90 110 155 120 112 52 0 0 0 0 0 0 0 9 6 5 5 7 7 4
506 531 424 283 467 471 367 382 359 392 344 337 373 435 522 464 380 379 360 322 326 303 185 114 159 100 108 75 0 0 0 0 0 0 0 0 8 4 2 1 1 2 3
442 317 274 184 71 242 266 291 306 375 419 436 480 466 435 305 303 283 281 251 289 313 281 122 114 185 137 50 0 0 0 0 0 0 0 0 0 0 0 0 0 0 0
351 299 144 184 4 103 292 271 309 337 374 394 391 298 210 232 258 290 222 203 215 255 342 177 54 79 56 0 0 0 0 0 0 0 1 6 17 4 0 0 0 0 1
307 189 147 49 2 138 253 356 340 368 372 300 231 186 82 59 79 35 82 78 92 164 97 114 10 0 0 0 0 0 0 0 0 0 0 13 8 13 3 0 0 0 0
182 27 13 22 130 142 154 224 223 249 177 103 38 85 59 105 41 15 9 25 54 38 2 0 0 0 0 0 0 0 0 0 0 0 0 0 0 12 10 2 0 0 0
57 5 1 21 132 202 124 101 112 86 56 64 67 45 69 73 66 15 15 16 18 0 0 0 0 0 0 0 0 0 0 0 0 0 0 0 0 0 21 11 0 0 0
3 18 18 3 2 45 96 43 22 18 20 36 16 58 105 89 32 16 21 0 0 0 0 0 0 0 0 0 0 0 0 0 0 0 0 0 0 0 0 30 3 0 0
10 9 4 0 7 168 164 20 9 16 14 32 9 67 63 88 15 25 3 31 26 8 2 0 0 0 0 0 0 0 0 0 0 0 0 0 0 0 0 28 31 1 1
0 2 34 30 104 304 95 28 2 2 0 0 11 98 78 104 16 7 34 47 35 25 14 0 0 0 0 0 0 0 0 0 0 0 0 0 0 0 0 0 49 31 6
26 0 0 20 219 314 72 18 0 2 9 54 138 97 116 13 27 92 90 64 35 28 6 2 0 0 0 0 0 0 0 0 0 0 0 0 0 0 0 7 14 5 16
45 17 70 164 201 323 80 1 9 40 173 237 182 108 120 127 91 62 58 55 12 1 1 20 0 0 0 0 0 0 0 0 0 0 0 0 0 0 0 11 9 6 0
126 91 46 108 246 347 213 21 35 91 239 311 368 201 169 78 65 76 97 44 1 6 20 0 0 0 0 0 0 0 0 0 0 0 0 0 0 0 0 0 0 0 0
119 153 161 259 349 325 331 8 57 160 226 342 398 247 115 107 176 139 64 28 4 18 0 0 0 0 0 0 0 0 0 0 0 0 0 0 0 0 0 0 0 0 0
139 233 281 332 313 300 295 44 77 233 179 308 334 272 130 90 24 4 10 14 11 0 0 0 0 0 0 0 0 0 0 0 0 0 0 0 0 0 0 0 0 0 0
139 254 440 393 296 322 303 75 83 103 174 389 297 183 99 1 0 5 7 7 1 0 0 0 0 0 0 0 0 0 0 0 0 0 0 0 0 0 0 0 0 0 0
202 248 396 416 322 328 348 173 69 124 215 307 222 110 27 3 1 2 2 0 0 0 0 0 0 0 0 0 0 0 0 0 0 0 0 0 0 0 0 0 0 0 0
233 278 345 374 476 439 440 433 190 121 217 215 152 91 28 8 8 3 10 0 0 0 0 0 0 0 0 0 0 2 0 0 0 0 0 0 0 0 0 0 0 0 0
418 497 462 413 425 585 624 607 552 343 201 146 100 83 42 28 41 33 31 0 0 0 0 1 1 3 0 0 0 0 0 0 0 0 0 0 0 0 0 0 0 0 0
626 601 566 493 364 595 623 429 433 311 201 165 173 118 76 65 48 57 31 3 8 21 18 19 16 2 1 0 0 0 0 0 0 0 0 0 0 0 0 0 0 0 0
CIN
-77 -58 -14 -12 -18 -34 -37 -41 -51 -50 -55 -58 -63 -72 -98 -62 -52 -57 -79 -87 -77 -54 -173 0 -123 -89 -5 0 -5 -21 -7 0 0 0 0 0 0 0 0 0 -4 -7 0
-44 -62 -11 -13 -19 -31 -42 -54 -62 -63 -73 -71 -92 -111 -69 -56 -56 -81 -71 -56 -60 -97 -88 -54 -44 -43 -48 -8 -7 -12 -23 -4 -3 -6 0 0 0 0 0 0 0 -1 -5
-24 -52 -15 -17 -18 -27 -34 -38 -52 -63 -101 -121 -93 -52 -49 -53 -61 -60 -45 -54 -35 -50 -37 -28 -32 -42 -48 -17 0 -3 -8 -6 -3 -9 0 0 0 0 0 0 0 0 0
-22 -29 -38 -9 -9 -20 -29 -39 -53 -92 -117 -87 -71 -38 -52 -42 -24 -36 -67 -54 -65 -31 -39 -26 -21 -29 -32 -3 -2 -9 -36 0 0 0 0 0 0 0 0 0 0 0 0
-22 -10 -14 -8 -9 -13 -32 -58 -84 -96 -108 -47 -88 -35 -33 -17 -18 -11 -57 -65 -45 -39 -61 -43 -32 -29 -24 -20 -17 -31 0 0 0 0 0 0 0 0 0 0 0 0 0
-6 -1 -2 -6 -12 -23 -36 -46 -54 -81 -87 -55 -71 -20 -11 -6 0 -2 -32 -37 -35 -52 -97 -91 -76 -60 -56 -56 -68 -102 0 0 0 0 0 0 0 0 0 0 0 0 0
0 -1 0 -2 -6 -15 -30 -46 -36 -74 -51 -64 -27 -22 -13 -4 -1 -4 -21 -31 -33 -54 -88 -88 -94 -76 -81 -88 -128 0 0 0 0 0 0 0 0 0 0 0 0 0 0
0 0 -1 -1 -1 -5 -38 -36 -50 -36 -17 -45 -13 -16 -5 -13 -20 -25 -38 -42 -43 -52 -60 -78 -74 -88 -108 -135 0 0 0 0 0 0 0 0 0 0 0 0 0 0 0
0 -2 0 0 -1 -4 -31 -35 -42 -14 -34 -5 -4 -22 -39 -48 -53 -54 -54 -64 -56 -49 -52 -81 -95 -83 -83 -128 0 0 0 0 0 0 0 0 0 0 0 0 0 0 0
0 0 0 0 0 -10 -9 -30 -58 -73 -32 -26 -62 -89 -96 -98 -94 -80 -71 -57 -59 -60 -49 -66 -123 -97 -118 0 0 0 0 0 0 0 0 0 0 0 0 0 0 0 0
-3 -1 0 -10 0 -13 -5 -22 -35 -46 -28 -66 -97 -116 -224 -176 -161 -187 -164 -155 -110 -80 -96 -99 -133 0 0 0 0 0 0 0 0 0 0 -7 -1 0 0 0 0 0 0
0 -52 -30 -2 -2 -8 -44 -45 -56 -25 -63 -133 -161 -155 -187 -172 -195 -198 -154 -212 -154 -154 -49 0 0 0 0 0 0 0 0 0 0 0 0 0 0 0 0 -1 0 0 0
-30 -15 0 0 -5 -28 -89 -107 -102 -67 -115 -151 -168 -207 -209 -161 -167 -183 -178 -147 -162 0 0 0 0 0 0 0 0 0 0 0 0 0 0 0 0 0 0 0 0 0 0
-2 0 0 0 0 -29 -21 -119 -141 -139 -214 -222 -207 -206 -146 -132 -180 -194 -151 0 0 0 0 0 0 0 0 0 0 0 0 0 0 0 0 0 0 0 0 0 0 0 0
0 0 0 0 -54 -11 -30 -116 -170 -218 -209 -171 -220 -169 -177 -134 -135 -159 -30 -42 -30 -34 -17 0 0 0 0 0 0 0 0 0 0 0 0 0 0 0 0 0 0 0 0
0 -9 -47 -43 -32 0 -69 -137 -162 -225 -19 0 -185 -119 -135 -118 -185 -55 -48 -31 -20 -13 -9 0 0 0 0 0 0 0 0 0 0 0 0 0 0 0 0 0 -1 -1 0
-74 0 0 -61 0 0 -54 -128 -7 -190 -162 -105 -80 -126 -44 -102 -63 -39 -34 -18 -12 -6 -5 -2 -1 0 0 0 0 0 0 0 0 0 0 0 0 0 0 -2 -1 -1 0
-57 -51 -11 -3 -5 -4 -42 -100 -222 -140 -58 -49 -79 -29 -34 -28 -42 -30 -21 -9 -11 -5 -4 -1 0 0 0 0 0 0 0 0 0 0 0 0 0 0 0 -13 -1 -3 -1
-35 -51 -95 -57 -31 -23 -33 -184 -151 -100 -43 -20 -10 -22 -28 -47 -36 -23 -16 -4 -2 -4 -1 0 0 0 0 0 0 0 0 0 0 0 0 0 0 0 0 0 0 0 0
-125 -67 -43 -41 -33 -13 -12 -90 -129 -77 -41 -16 -10 -27 -52 -41 -19 -10 -17 -2 -3 -1 0 0 0 0 0 0 0 0 0 0 0 0 0 0 0 0 0 0 0 0 0
-196 -124 -81 -23 -52 -50 -62 -186 -134 -72 -73 -24 -25 -33 -29 -44 -41 -35 -27 -12 -2 0 0 0 0 0 0 0 0 0 0 0 0 0 0 0 0 0 0 0 0 0 0
-246 -171 -75 -75 -107 -83 -63 -170 -153 -121 -73 -16 -21 -20 -15 -10 0 -11 -49 -41 -6 0 0 0 0 0 0 0 0 0 0 0 0 0 0 0 0 0 0 0 0 0 0
-243 -228 -151 -111 -116 -107 -84 -103 -178 -111 -50 -21 -45 -36 -34 -20 -5 -10 -10 0 0 0 0 0 0 0 0 0 0 0 0 0 0 0 0 0 0 0 0 0 0 0 0
-297 -258 -209 -174 -112 -97 -66 -61 -102 -133 -70 -65 -44 -18 -25 -21 -23 -13 -19 0 0 0 0 0 0 0 0 0 0 0 0 0 0 0 0 0 0 0 0 0 0 0 0
-278 -249 -220 -181 -140 -76 -60 -44 -42 -50 -62 -52 -30 -19 -14 -10 -16 -15 -21 0 0 0 0 0 0 0 0 0 0 0 0 0 0 0 0 0 0 0 0 0 0 0 0
-270 -261 -238 -202 -161 -81 -65 -74 -67 -66 -62 -39 -22 -18 -23 -17 -18 -19 -29 -30 -25 -8 -6 -7 0 0 0 0 0 0 0 0 0 0 0 0 0 0 0 0 0 0 0
Wind_Speed
27 26 31 34 35 40 42 43 43 45 45 41 35 32 nan nan nan nan nan nan nan 24 nan nan nan nan 31 30 29 nan 27 27 26 27 27 nan nan nan nan nan 20 nan 20
27 30 31 33 36 41 42 43 43 41 38 36 37 33 31 32 nan nan nan 27 26 nan nan 26 27 nan nan 30 30 28 29 26 26 nan nan nan nan nan nan nan nan nan 21
32 33 34 36 39 41 40 41 41 43 37 39 39 35 36 35 32 31 26 27 26 30 31 30 32 32 33 32 29 27 27 27 26 nan nan nan nan nan nan nan nan nan nan
36 37 38 39 42 43 42 41 41 40 38 41 45 44 42 40 34 32 28 26 26 31 35 35 37 35 35 32 33 33 33 nan nan nan nan nan nan nan nan nan nan nan nan
38 38 41 43 44 44 44 42 43 42 46 39 45 43 42 41 38 35 32 27 27 32 37 36 38 37 35 33 34 34 nan nan nan nan nan nan nan nan nan nan nan nan nan
40 39 40 42 41 41 43 44 44 44 45 41 41 44 41 40 38 38 33 29 30 35 nan nan 36 35 34 34 nan nan nan nan nan nan nan nan nan nan nan nan nan nan nan
39 39 36 37 37 40 45 47 43 43 42 37 41 45 42 40 40 37 32 30 30 34 35 nan 35 34 35 36 nan nan nan nan nan nan nan nan nan nan nan nan nan nan nan
33 37 34 34 39 40 50 42 42 33 38 41 40 43 41 40 39 36 28 28 26 27 29 32 34 35 35 nan nan nan nan nan nan nan nan nan nan nan nan nan nan nan nan
34 38 38 35 nan 44 46 45 42 36 44 41 42 40 36 35 33 28 26 21 24 25 27 31 33 32 34 nan nan nan nan nan nan nan nan nan nan nan nan nan nan nan nan
35 37 42 44 nan 42 45 41 43 54 44 48 48 38 29 19 18 19 18 21 22 22 27 28 nan nan nan nan nan nan nan nan nan nan nan nan nan nan nan nan nan nan nan
45 43 50 nan nan 43 53 51 41 58 58 47 38 35 nan nan nan nan nan nan nan 24 nan 27 nan nan nan nan nan nan nan nan nan nan nan nan nan nan nan nan nan nan nan
42 nan nan nan 47 38 46 45 49 51 36 24 nan nan nan 15 nan nan nan nan nan nan nan nan nan nan nan nan nan nan nan nan nan nan nan nan nan nan nan nan nan nan nan
nan nan nan nan 37 38 38 32 22 nan nan nan nan nan nan nan nan nan nan nan nan nan nan nan nan nan nan nan nan nan nan nan nan nan nan nan nan nan nan nan nan nan nan
nan nan nan nan nan nan nan nan nan nan nan nan nan nan 14 nan nan nan nan nan nan nan nan nan nan nan nan nan nan nan nan nan nan nan nan nan nan nan nan nan nan nan nan
nan nan nan nan nan 14 16 nan nan nan nan nan nan nan nan nan nan nan nan nan nan nan nan nan nan nan nan nan nan nan nan nan nan nan nan nan nan nan nan nan nan nan nan
nan nan nan nan 4 9 nan nan nan nan nan nan nan nan nan 7 nan nan nan nan nan nan nan nan nan nan nan nan nan nan nan nan nan nan nan nan nan nan nan nan nan nan nan
nan nan nan nan 22 19 nan nan nan nan nan nan 7 nan 9 nan nan nan nan nan nan nan nan nan nan nan nan nan nan nan nan nan nan nan nan nan nan nan nan nan nan nan nan
nan nan nan 19 14 10 nan nan nan nan 6 8 9 14 15 15 nan nan nan nan nan nan nan nan nan nan nan nan nan nan nan nan nan nan nan nan nan nan nan nan nan nan nan
16 nan nan 14 10 6 4 nan nan nan 10 12 15 13 12 nan nan nan nan nan nan nan nan nan nan nan nan nan nan nan nan nan nan nan nan nan nan nan nan nan nan nan nan
11 12 14 9 6 2 6 nan nan 12 12 14 12 10 11 12 15 21 nan nan nan nan nan nan nan nan nan nan nan nan nan nan nan nan nan nan nan nan nan nan nan nan nan
6 6 7 6 0 6 9 nan nan 10 12 12 9 9 11 nan nan nan nan nan nan nan nan nan nan nan nan nan nan nan nan nan nan nan nan nan nan nan nan nan nan nan nan
6 6 2 1 4 6 9 nan nan 8 8 8 10 12 nan nan nan nan nan nan nan nan nan nan nan nan nan nan nan nan nan nan nan nan nan nan nan nan nan nan nan nan nan
6 5 4 3 7 10 11 14 nan 15 13 13 15 18 nan nan nan nan nan nan nan nan nan nan nan nan nan nan nan nan nan nan nan nan nan nan nan nan nan nan nan nan nan
5 5 6 8 10 11 13 14 16 12 14 16 20 nan nan nan nan nan nan nan nan nan nan nan nan nan nan nan nan nan nan nan nan nan nan nan nan nan nan nan nan nan nan
10 11 11 11 12 16 17 12 12 14 15 22 26 nan nan nan nan nan nan nan nan nan nan nan nan nan nan nan nan nan nan nan nan nan nan nan nan nan nan nan nan nan nan
13 14 16 16 15 18 14 15 11 14 21 24 28 32 nan nan nan nan nan nan nan nan nan nan nan nan nan nan nan nan nan nan nan nan nan nan nan nan nan nan nan nan nan
Wind_Direction
285 288 288 286 282 283 284 286 289 292 297 295 298 308 nan nan nan nan nan nan nan 275 nan nan nan nan 285 286 287 nan 287 281 278 274 270 nan nan nan nan nan 258 nan 262
281 285 282 279 280 281 283 290 295 298 292 296 286 297 304 301 nan nan nan 293 275 nan nan 274 279 nan nan 294 294 296 293 289 282 nan nan nan nan nan nan nan nan nan 257
279 279 276 276 277 279 281 285 299 305 293 289 289 288 293 293 294 291 289 280 266 269 271 273 282 290 296 298 295 293 295 294 291 nan nan nan nan nan nan nan nan nan nan
276 280 277 275 276 280 292 294 298 294 296 293 287 289 290 290 285 289 279 268 263 265 269 274 281 288 295 301 294 300 301 nan nan nan nan nan nan nan nan nan nan nan nan
277 276 272 279 282 288 291 292 292 285 285 291 284 291 288 286 287 287 277 267 260 259 266 273 279 287 289 292 293 298 nan nan nan nan nan nan nan nan nan nan nan nan nan
277 280 276 285 292 293 291 285 283 284 285 283 281 287 287 287 287 283 275 262 258 255 nan nan 279 287 292 293 nan nan nan nan nan nan nan nan nan nan nan nan nan nan nan
272 275 279 283 289 285 285 281 276 284 278 273 281 288 286 285 284 275 269 258 251 256 265 nan 284 290 292 294 nan nan nan nan nan nan nan nan nan nan nan nan nan nan nan
269 272 273 271 273 272 284 272 279 267 279 262 280 285 287 287 284 269 259 257 251 258 262 270 284 291 290 nan nan nan nan nan nan nan nan nan nan nan nan nan nan nan nan
263 268 265 268 nan 264 263 257 271 263 265 263 273 277 279 283 271 252 245 250 263 266 272 277 281 286 289 nan nan nan nan nan nan nan nan nan nan nan nan nan nan nan nan
260 263 265 263 nan 264 260 251 269 255 270 271 273 278 276 237 235 244 251 254 259 269 277 284 nan nan nan nan nan nan nan nan nan nan nan nan nan nan nan nan nan nan nan
257 261 266 nan nan 252 244 237 257 268 267 281 275 266 nan nan nan nan nan nan nan 273 nan 282 nan nan nan nan nan nan nan nan nan nan nan nan nan nan nan nan nan nan nan
269 nan nan nan 239 246 238 243 265 277 257 268 nan nan nan 212 nan nan nan nan nan nan nan nan nan nan nan nan nan nan nan nan nan nan nan nan nan nan nan nan nan nan nan
nan nan nan nan 243 248 236 252 257 nan nan nan nan nan nan nan nan nan nan nan nan nan nan nan nan nan nan nan nan nan nan nan nan nan nan nan nan nan nan nan nan nan nan
nan nan nan nan nan nan nan nan nan nan nan nan nan nan 215 nan nan nan nan nan nan nan nan nan nan nan nan nan nan nan nan nan nan nan nan nan nan nan nan nan nan nan nan
nan nan nan nan nan 222 229 nan nan nan nan nan nan nan nan nan nan nan nan nan nan nan nan nan nan nan nan nan nan nan nan nan nan nan nan nan nan nan nan nan nan nan nan
nan nan nan nan 180 203 nan nan nan nan nan nan nan nan nan 267 nan nan nan nan nan nan nan nan nan nan nan nan nan nan nan nan nan nan nan nan nan nan nan nan nan nan nan
nan nan nan nan 90 97 nan nan nan nan nan nan 229 nan 263 nan nan nan nan nan nan nan nan nan nan nan nan nan nan nan nan nan nan nan nan nan nan nan nan nan nan nan nan
nan nan nan 80 81 88 nan nan nan nan 227 225 241 245 267 281 nan nan nan nan nan nan nan nan nan nan nan nan nan nan nan nan nan nan nan nan nan nan nan nan nan nan nan
87 nan nan 72 81 92 83 nan nan nan 248 245 249 256 270 nan nan nan nan nan nan nan nan nan nan nan nan nan nan nan nan nan nan nan nan nan nan nan nan nan nan nan nan
81 73 65 76 80 85 233 nan nan 249 245 250 253 265 270 269 295 293 nan nan nan nan nan nan nan nan nan nan nan nan nan nan nan nan nan nan nan nan nan nan nan nan nan
89 60 47 46 23 240 240 nan nan 267 253 253 241 254 292 nan nan nan nan nan nan nan nan nan nan nan nan nan nan nan nan nan nan nan nan nan nan nan nan nan nan nan nan
54 49 38 33 274 254 259 nan nan 249 241 249 264 284 nan nan nan nan nan nan nan nan nan nan nan nan nan nan nan nan nan nan nan nan nan nan nan nan nan nan nan nan nan
58 29 19 342 299 287 297 289 nan 253 251 262 279 283 nan nan nan nan nan nan nan nan nan nan nan nan nan nan nan nan nan nan nan nan nan nan nan nan nan nan nan nan nan
24 334 329 317 304 286 298 297 300 290 288 284 294 nan nan nan nan nan nan nan nan nan nan nan nan nan nan nan nan nan nan nan nan nan nan nan nan nan nan nan nan nan nan
315 309 310 305 300 281 285 296 290 299 282 279 291 nan nan nan nan nan nan nan nan nan nan nan nan nan nan nan nan nan nan nan nan nan nan nan nan nan nan nan nan nan nan
287 295 300 303 294 281 283 292 289 307 291 295 300 301 nan nan nan nan nan nan nan nan nan nan nan nan nan nan nan nan nan nan nan nan nan nan nan nan nan nan nan nan nan